Location: Grantsboro
(35.1404°N, 76.8424°W)
Time: 21:07:11
(UTC+00:00)

Cosmos 2366 rocket - Pass Details

Date: 18 January 2020
Orbit: 956 x 996 km, 82.9° (Epoch: 27 February)

Event Time Altitude Azimuth Distance (km) Brightness Sun altitude
Rises 00:09:05 0° 181° (S) 3,624 7.1 -22.0°
Reaches altitude 10° 00:11:33 10° 180° (S) 2,686 6.4 -22.5°
Maximum altitude 00:17:42 80° 95° (E) 986 3.8 -23.7°
Drops below altitude 10° 00:23:56 10° 9° (N) 2,727 6.2 -25.0°
Enters shadow 00:24:55 - 8° (N) 3,099 6.5 -25.2°
